#timestamp,LO_Frequency,Hit,StdDev 
1710086415.7,286046998.3,N
1710086435.6,286047001.2,N
1710086455.4,286047000.0,N
1710086475.2,286046995.6,N
1710086495.1,286046998.4,N
1710086496.0,286046998.4,N
1710086515.8,286047002.3,N
1710086535.6,286047001.6,N
1710086555.5,286047001.8,N
1710086575.3,286047005.5,N
1710086595.2,286047002.6,N
1710086615.9,286047001.2,N
1710086635.7,286047000.6,N
1710086655.6,286047004.4,N
1710086675.4,286047003.3,N
1710086695.2,286047002.5,N
1710086715.1,286047002.0,N
1710086716.0,286047002.0,N
1710086735.8,286047004.2,N
1710086755.7,286047002.6,N
1710086775.5,286047000.3,N
1710086795.3,286047000.9,N
1710086815.2,286046999.6,N
1710086835.0,286046997.5,N
1710086835.9,286046997.5,N
1710086855.7,286046998.6,N
1710086875.6,286047005.2,N
1710086895.4,286047006.9,N
1710086915.3,286047005.1,N
1710086935.1,286047005.4,N
1710086936.0,286047005.4,N
1710086955.8,286047004.4,N
1710086975.7,286047000.1,N
1710086995.5,286046999.8,N
1710087015.3,286047004.2,N
1710087035.2,286047003.7,N
1710087055.0,286047006.9,N
1710087055.9,286047006.9,N
1710087075.8,286047006.1,N
1710087095.6,286047005.0,N
1710087115.4,286047004.7,N
1710087135.3,286047003.2,N
1710087155.1,286047008.5,Y
1710087175.9,286047002.9,P
1710087195.7,286047003.9,P
1710087215.5,286047000.7,N
1710087235.4,286046999.9,N
1710087255.2,286047002.2,N
1710087275.0,286047004.1,N
1710087275.9,286047004.1,N
1710087295.8,286047003.4,N
1710087315.6,286047007.6,Y
1710087335.5,286047005.0,P
1710087355.3,286047004.5,P
1710087375.1,286047007.5,P
1710087395.9,286047006.5,Y
1710087415.7,286047002.8,P
1710087435.5,286046998.1,N
1710087455.4,286047000.5,N
1710087475.2,286047000.7,N
1710087495.1,286046998.1,N
1710087496.0,286046998.1,N
1710087515.8,286046998.2,N
1710087535.6,286046998.2,N
1710087555.5,286046998.4,N
1710087575.3,286047002.1,N
1710087595.1,286047000.6,N
1710087615.9,286047001.4,N
1710087635.7,286047004.2,N
1710087655.6,286047004.1,N
1710087675.4,286047004.0,N
1710087695.2,286047001.0,N
1710087715.1,286047001.7,N
1710087716.0,286047001.7,N
1710087735.8,286047001.0,N
1710087755.6,286046998.1,N
1710087775.5,286047003.6,N
1710087795.3,286047002.1,N
1710087815.2,286047001.7,N
1710087835.9,286046999.7,N
1710087855.7,286046999.9,N
1710087875.6,286046999.4,N
1710087895.4,286046998.5,N
1710087915.2,286047000.3,N
1710087935.1,286047003.1,N
1710087936.0,286047003.1,N
1710087955.8,286047002.6,N
1710087975.7,286047002.4,N
1710087995.5,286047000.8,N
1710088015.3,286046997.7,N
1710088035.2,286046994.6,N
1710088055.0,286046993.1,Y
1710088055.9,286046993.1,P
1710088075.8,286046995.2,N
1710088095.6,286046996.8,N
1710088115.4,286046998.7,N
1710088135.3,286046998.6,N
1710088155.1,286047000.2,N
1710088175.8,286047002.4,N
1710088195.7,286047000.2,N
1710088215.5,286047001.9,N
1710088235.4,286047000.2,N
1710088255.2,286047001.6,N
1710088275.0,286047003.2,N
1710088275.9,286047003.2,N
1710088295.8,286047003.4,N
1710088315.6,286047000.6,N
1710088335.5,286047001.2,N
1710088355.3,286047000.2,N
1710088375.1,286047000.9,N
1710088395.9,286047002.9,N
1710088415.7,286047006.5,N
1710088435.6,286047009.6,Y
1710088455.4,286047003.0,P
1710088475.2,286047004.5,P
1710088495.1,286047009.0,P
1710088496.0,286047009.0,N
1710088515.8,286047004.1,N
1710088535.6,286047004.6,N
1710088555.5,286047007.5,N
1710088575.3,286047002.5,N
1710088595.2,286047002.8,N
1710088615.9,286047005.0,N
1710088635.7,286047006.7,N
1710088655.6,286047007.1,N
1710088675.4,286047005.1,N
1710088695.2,286047004.6,N
1710088715.1,286047006.7,N
1710088716.0,286047006.7,N
1710088735.8,286047010.1,Y
1710088755.7,286047004.7,P
1710088775.5,286047008.5,P
1710088795.3,286047008.8,P
1710088815.2,286047006.7,Y
1710088835.0,286047000.8,P
1710088835.9,286047000.8,N
1710088855.7,286047002.5,N
1710088875.6,286047003.9,N
1710088895.4,286047004.0,N
1710088915.3,286047005.9,N
1710088935.1,286047005.8,N
1710088936.0,286047005.8,N
1710088955.8,286047001.9,N
1710088975.7,286047005.9,N
1710088995.5,286047008.5,Y
1710089015.4,286047003.2,P
1710089035.2,286047005.6,P
1710089055.0,286047003.2,P
1710089055.9,286047003.2,Y
1710089075.8,286047000.1,P
1710089095.6,286047001.0,N
1710089115.4,286047000.9,N
1710089135.3,286047002.0,N
1710089155.1,286047002.2,N
1710089175.9,286046998.7,N
1710089195.7,286046996.9,N
1710089215.5,286046998.6,N
1710089235.4,286046998.3,N
1710089255.2,286046996.6,N
1710089275.0,286047001.1,N
1710089275.9,286047001.1,N
1710089295.8,286047001.0,N
1710089315.6,286047000.3,N
1710089335.5,286047000.7,N
1710089355.3,286046996.5,N
1710089375.1,286046998.9,N
1710089395.9,286046999.8,N
1710089415.7,286047002.5,N
1710089435.5,286046998.2,N
1710089455.4,286047000.2,N
1710089475.2,286047006.0,Y
1710089495.0,286047006.0,P
1710089496.0,286047006.0,N
1710089515.8,286047007.6,N
1710089535.6,286047005.6,N
1710089555.5,286047003.6,N
1710089575.3,286047004.8,N
1710089595.1,286047005.3,N
1710089615.9,286047009.0,Y
1710089635.7,286047001.6,P
1710089655.6,286047001.9,N
1710089675.4,286047004.3,N
1710089695.2,286047003.6,N
1710089715.1,286047005.7,Y
1710089716.0,286047005.7,P
1710089735.8,286046999.8,N
1710089755.6,286047004.2,N
1710089775.5,286047005.1,N
1710089795.3,286047004.2,N
1710089815.2,286047001.5,N
1710089835.9,286047000.6,N
1710089855.7,286047000.0,N
1710089875.6,286047005.8,N
1710089895.4,286047008.7,Y
1710089915.2,286047004.7,P
1710089935.1,286047004.5,P
1710089936.0,286047004.5,P
1710089955.8,286047005.9,Y
1710089975.7,286046999.7,P
1710089995.5,286046998.7,N
